Weather History for Rochester, NY

Change the Weather History Date:

Tuesday, December 17, 2013

  Actual Average Record
Temperature  
Mean Temperature 12 °F 29 °F  
Max Temperature 28 °F 36 °F 60 °F (1984)
Min Temperature -4 °F 23 °F -4 °F (2013)
Degree Days  
Heating Degree Days 53 36  
Month to date heating degree days 640 561  
Since 1 July heating degree days 2012 1929  
Cooling Degree Days 0 0  
Month to date cooling degree days 0 0  
Year to date cooling degree days 660 539  
Moisture  
Dew Point 14 °F    
Average Humidity 82    
Maximum Humidity 88    
Minimum Humidity 75    
Precipitation  
Precipitation 0.18 in 0.08 in 0.82 in (1929)
Month to date precipitation 1.22 1.51  
Year to date precipitation 34.97 33.15  
Snow  
Snow 2.30 in 0.70 in 7.00 in (1973)
Month to date snowfall 17.7 10.8  
Since 1 July snowfall 31.2 18.2  
Snow Depth 6.00 in    
Sea Level Pressure  
Sea Level Pressure 29.98 in    
Wind  
Wind Speed 6 mph (SSW)    
Max Wind Speed 16 mph    
Max Gust Speed 22 mph    
Visibility 5 miles    
Events Fog , Snow    
T = Trace of Precipitation, MM = Missing Value Source: NWS Daily Summary

Daily Weather History Graph

Daily Weather History Graph

Search for Another Location

Airport:

Trip Planner

Search our weather history database for the weather conditions in past years. The results will help you decide how hot, cold, wet, or windy it might be!

Date:

Astronomy

Dec. 17, 2013 Rise Set
Actual Time 7:36 AM EST 4:37 PM EST
Civil Twilight 7:04 AM EST 5:09 PM EST
Nautical Twilight 6:28 AM EST 5:45 PM EST
Astronomical Twilight 5:53 AM EST 6:20 PM EST
Moon 5:16 PM EST (12/17) 7:30 AM EST (12/17)
Length of Visible Light 10h 05m
Length of Day
9h 00m
Full, 100% of the Moon is Illuminated
Dec 17
Full
Dec 25
Last Quarter
Jan 1
New
Jan 7
First Quarter
Jan 15
Full

Hourly Weather History & Observations

Time (EST) Temp. Windchill Dew Point Humidity Pressure Visibility Wind Dir Wind Speed Gust Speed Precip Events Conditions
12:54 AM -2.0 °F - -6.0 °F 83% 30.18 in 10.0 mi Calm Calm - N/A   Partly Cloudy
1:54 AM -2.0 °F - -7.1 °F 79% 30.16 in 10.0 mi Calm Calm - N/A   Scattered Clouds
2:54 AM -2.9 °F -11.2 °F -7.1 °F 82% 30.14 in 10.0 mi WSW 3.5 mph - N/A   Mostly Cloudy
3:54 AM -2.0 °F -10.1 °F -7.1 °F 79% 30.09 in 10.0 mi East 3.5 mph - N/A   Mostly Cloudy
4:54 AM 8.1 °F 1.4 °F 3.0 °F 80% 30.06 in 7.0 mi East 3.5 mph - N/A   Overcast
5:24 AM 3.2 °F -9.1 °F -0.4 °F 85% 30.01 in 1.8 mi SW 6.9 mph - 0.00 in Snow Light Snow
5:33 AM 3.2 °F -7.8 °F -0.4 °F 85% 30.01 in 1.0 mi WSW 5.8 mph - 0.01 in Snow Light Snow
5:54 AM 3.9 °F - 1.9 °F 91% 30.04 in 1.2 mi Calm Calm - 0.02 in Snow Light Snow
6:54 AM 14.0 °F 3.9 °F 9.0 °F 80% 30.00 in 1.8 mi ESE 6.9 mph - 0.02 in Snow Light Snow
7:11 AM 14.0 °F 2.0 °F 10.4 °F 86% 29.95 in 0.5 mi ESE 9.2 mph - 0.02 in Fog , Snow Snow
7:40 AM 15.8 °F 5.1 °F 12.2 °F 86% 29.94 in 4.0 mi SE 8.1 mph - 0.03 in Snow Light Snow
7:54 AM 16.0 °F 4.4 °F 12.0 °F 84% 29.99 in 4.0 mi SE 9.2 mph - 0.03 in Snow Light Snow
8:31 AM 17.6 °F 8.2 °F 12.2 °F 79% 29.92 in 3.0 mi SE 6.9 mph - 0.00 in Snow Light Snow
8:54 AM 17.1 °F 8.7 °F 12.9 °F 84% 29.97 in 3.0 mi SE 5.8 mph - 0.01 in Snow Light Snow
9:10 AM 17.6 °F 9.3 °F 14.0 °F 86% 29.92 in 2.5 mi SSE 5.8 mph - 0.00 in Snow Light Snow
9:54 AM 19.0 °F 12.3 °F 15.1 °F 85% 29.98 in 2.5 mi South 4.6 mph - 0.00 in Snow Light Snow
10:24 AM 17.6 °F 9.3 °F 12.2 °F 79% 29.93 in 4.0 mi SSW 5.8 mph - 0.01 in Snow Light Snow
10:54 AM 19.0 °F 11.1 °F 14.0 °F 81% 29.97 in 4.0 mi SSW 5.8 mph - 0.01 in Snow Light Snow
11:54 AM 21.9 °F 13.4 °F 17.1 °F 82% 29.95 in 5.0 mi SW 6.9 mph - 0.00 in Snow Light Snow
12:43 PM 24.8 °F 19.1 °F 19.4 °F 80% 29.89 in 1.8 mi SW 4.6 mph - 0.00 in Snow Light Snow
12:54 PM 24.1 °F 17.0 °F 21.0 °F 88% 29.94 in 1.0 mi SW 5.8 mph - 0.01 in Snow Light Snow
1:03 PM 24.8 °F 17.9 °F 21.2 °F 86% 29.89 in 0.8 mi SW 5.8 mph - 0.00 in Snow Light Snow
1:16 PM 24.8 °F 19.1 °F 21.2 °F 86% 29.89 in 1.0 mi SW 4.6 mph - 0.00 in Snow Light Snow
1:31 PM 24.8 °F 20.5 °F 21.2 °F 86% 29.89 in 2.0 mi WSW 3.5 mph - 0.01 in Snow Light Snow
1:50 PM 26.6 °F 18.2 °F 23.0 °F 86% 29.90 in 4.0 mi West 8.1 mph - 0.01 in Snow Light Snow
1:54 PM 28.0 °F 20.0 °F 23.0 °F 81% 29.94 in 5.0 mi West 8.1 mph - 0.01 in Snow Light Snow
2:54 PM 27.0 °F 15.2 °F 21.0 °F 78% 29.95 in 9.0 mi West 15.0 mph 21.9 mph 0.00 in Snow Light Snow
3:54 PM 27.0 °F 18.7 °F 19.0 °F 72% 29.96 in 9.0 mi West 8.1 mph - 0.00 in Snow Light Snow
4:54 PM 27.0 °F 21.6 °F 19.0 °F 72% 29.96 in 10.0 mi West 4.6 mph - 0.00 in   Overcast
5:54 PM 27.0 °F - 19.0 °F 72% 29.97 in 10.0 mi Calm Calm - N/A   Overcast
6:54 PM 26.1 °F - 19.0 °F 75% 29.97 in 10.0 mi Calm Calm - N/A   Overcast
7:54 PM 25.0 °F 18.1 °F 19.9 °F 81% 29.97 in 7.0 mi ESE 5.8 mph - 0.00 in Snow Light Snow
8:54 PM 26.1 °F 20.5 °F 21.0 °F 81% 29.97 in 9.0 mi SSE 4.6 mph - 0.00 in   Overcast
9:24 PM 26.6 °F 22.6 °F 21.2 °F 80% 29.94 in 2.0 mi SSW 3.5 mph - 0.00 in Snow Light Snow
9:30 PM 26.6 °F 21.2 °F 21.2 °F 80% 29.94 in 1.5 mi SSW 4.6 mph - 0.00 in Snow Light Snow
9:54 PM 26.1 °F 16.8 °F 21.9 °F 84% 29.97 in 1.5 mi SSW 9.2 mph - 0.00 in Snow Light Snow
10:27 PM 26.6 °F 20.0 °F 21.2 °F 80% 29.94 in 2.0 mi SSW 5.8 mph - 0.01 in Snow Light Snow
10:39 PM 26.6 °F 20.0 °F 21.2 °F 80% 29.94 in 3.0 mi SSW 5.8 mph - 0.01 in Snow Light Snow
10:54 PM 25.0 °F 18.1 °F 21.9 °F 88% 29.97 in 6.0 mi SSW 5.8 mph - 0.01 in   Overcast
11:54 PM 25.0 °F 17.1 °F 21.0 °F 85% 29.96 in 2.0 mi SW 6.9 mph - 0.00 in Snow Light Snow